Casper, WY

7:43 AM MST on January 22, 2018 (GMT -0700)
Natrona County International

Weather History for KCPR - July, 2012

Change the Weather History Date:

Tuesday, July 31, 2012

  Actual Average Record
Temperature  
Mean Temperature 79 °F 72 °F  
Max Temperature 95 °F 89 °F 99 °F (1988)
Min Temperature 62 °F 54 °F 42 °F (1968)
Degree Days  
Heating Degree Days 0 0  
Month to date heating degree days 0 11  
Since 1 June heating degree days 44 152  
Since 1 July heating degree days 0 16  
Cooling Degree Days 14 7  
Month to date cooling degree days 324 188  
Year to date cooling degree days 471 245  
Since 1 June cooling degree days 462 241  
Growing Degree Days 28 (Base 50)    
Moisture  
Dew Point 41 °F    
Average Humidity 34    
Maximum Humidity 56    
Minimum Humidity 12    
Precipitation  
Precipitation 0.00 in 0.04 in 0.57 in (1996)
Month to date precipitation 1.01 1.41  
Year to date precipitation 5.93 8.23  
Snow  
Snow 0.00 in 0.00 in - ()
Month to date snowfall 0.0 0.0  
Since 1 June snowfall 0.0 0.1  
Since 1 July snowfall 0.0 0.0  
Snow Depth 0.00 in    
Sea Level Pressure  
Sea Level Pressure 29.89 in    
Wind  
Wind Speed 10 mph (SW)    
Max Wind Speed 21 mph    
Max Gust Speed 29 mph    
Visibility 10 miles    
Events      
T = Trace of Precipitation, MM = Missing Value Source: NWS Daily Summary

Daily Weather History Graph

Daily Weather History Graph

Search for Another Location

Airport or City:

Trip Planner

Search our weather history database for the weather conditions in past years. The results will help you decide how hot, cold, wet, or windy it might be!

Date:

Astronomy

Jul. 31, 2012 Rise Set
Actual Time 5:56 AM MDT 8:27 PM MDT
Civil Twilight 5:24 AM MDT 8:59 PM MDT
Nautical Twilight 4:44 AM MDT 9:39 PM MDT
Astronomical Twilight 3:58 AM MDT 10:24 PM MDT
Moon 7:17 PM MDT (7/31) 4:20 AM MDT (7/31)
Length of Visible Light 15h 35m
Length of Day
14h 30m
Waxing Gibbous, 97% of the Moon is Illuminated
Jul 31
Waxing Gibbous
Aug 1
Full
Aug 9
Last Quarter
Aug 17
New
Aug 24
First Quarter

Hourly Weather History & Observations

Time (MDT) Temp. Dew Point Humidity Pressure Visibility Wind Dir Wind Speed Gust Speed Precip Events Conditions
12:53 AM 71.1 °F 45.0 °F 39% 29.90 in 10.0 mi SSW 9.2 mph - N/A   Clear
1:53 AM 70.0 °F 44.1 °F 39% 29.89 in 10.0 mi WSW 5.8 mph - N/A   Clear
2:53 AM 68.0 °F 46.0 °F 45% 29.89 in 10.0 mi WSW 10.4 mph - N/A   Clear
3:53 AM 68.0 °F 45.0 °F 43% 29.90 in 10.0 mi WSW 5.8 mph - N/A   Clear
4:53 AM 66.9 °F 45.0 °F 45% 29.90 in 10.0 mi SW 6.9 mph - N/A   Clear
5:53 AM 63.0 °F 46.0 °F 54% 29.94 in 10.0 mi WSW 8.1 mph - N/A   Clear
6:53 AM 70.0 °F 46.0 °F 42% 29.92 in 10.0 mi WSW 3.5 mph - N/A   Clear
7:53 AM 75.9 °F 46.9 °F 36% 29.92 in 10.0 mi SSW 15.0 mph 19.6 mph N/A   Clear
8:53 AM 79.0 °F 46.9 °F 32% 29.92 in 10.0 mi SSW 15.0 mph 20.7 mph N/A   Clear
9:53 AM 82.0 °F 46.9 °F 29% 29.90 in 10.0 mi SSW 20.7 mph 28.8 mph N/A   Clear
10:53 AM 87.1 °F 46.9 °F 25% 29.89 in 10.0 mi SW 15.0 mph 25.3 mph N/A   Clear
11:53 AM 90.0 °F 44.1 °F 20% 29.88 in 10.0 mi WSW 16.1 mph 19.6 mph N/A   Clear
12:53 PM 93.2 °F 33.8 °F 12% 30.11 in 10.0 mi NNE 6.9 mph - N/A   Clear
1:53 PM 91.9 °F 36.0 °F 14% 29.85 in 10.0 mi South 8.1 mph - N/A   Clear
2:53 PM 90.0 °F 39.9 °F 17% 29.85 in 10.0 mi South 13.8 mph - N/A   Clear
3:53 PM 93.9 °F 35.1 °F 13% 29.84 in 10.0 mi South 13.8 mph 24.2 mph N/A   Clear
4:53 PM 93.0 °F 34.0 °F 12% 29.82 in 10.0 mi SSW 8.1 mph - N/A   Clear
5:53 PM 91.9 °F 34.0 °F 13% 29.82 in 10.0 mi SSW 4.6 mph - N/A   Clear
6:53 PM 88.0 °F 37.9 °F 17% 29.82 in 10.0 mi SW 12.7 mph - N/A   Clear
7:53 PM 84.0 °F 39.9 °F 21% 29.82 in 10.0 mi SSW 9.2 mph - N/A   Clear
8:53 PM 81.0 °F 39.0 °F 22% 29.84 in 10.0 mi SSW 8.1 mph - N/A   Clear
9:53 PM 80.1 °F 39.0 °F 23% 29.85 in 10.0 mi SW 3.5 mph - N/A   Clear
10:53 PM 82.4 °F 35.6 °F 19% 30.10 in 10.0 mi SW 6.9 mph - N/A   Clear
11:53 PM 78.1 °F 37.9 °F 24% 29.85 in 10.0 mi WSW 5.8 mph - N/A   Clear